Regional Weather Roundup
Issued by NWS Upton, NY

Current Version | Previous Version | Text Only | Print | Product List | Glossary On
Versions: 1 2 3 4 5 6 7 8 9 10 11 12 13 14 15 16 17 18 19 20 21 22 23 24 25 26 27 28 29 30 31 32 33 34
000 ASUS41 KOKX 091108 RWROKX REGIONAL WEATHER ROUNDUP NATIONAL WEATHER SERVICE NEW YORK NY 600 AM EST FRI DEC 09 2016 NOTE: "FAIR" INDICATES FEW OR NO CLOUDS BELOW 12,000 FEET WITH NO SIGNIFICANT WEATHER AND/OR OBSTRUCTIONS TO VISIBILITY. NYZ071-072-176-178-NJZ106-104-091200- NEW YORK CITY METRO AREA CITY SKY/WX TMP DP RH WIND PRES REMARKS Central Park NOT AVBL Wall St Helipt SUNNY 34 22 61 W8 30.07R WCI 27 Bronx Bot Gard NOT AVBL LaGuardia APRT PTCLDY 34 18 52 W13G25 30.05R WCI 25 Kennedy INTL PTCLDY 33 17 51 W17G23 30.07R WCI 22 Breezy Point N/A 32 N/A N/A W17G26 N/A WCI 21 Newark/Liberty PTCLDY 31 17 56 W18 30.07R WCI 19 Teterboro MOCLDY 32 16 51 W8 30.05S WCI 25 $$ NYZ177-179-078>081-091200- LONG ISLAND NEW YORK CITY SKY/WX TMP DP RH WIND PRES REMARKS Jones Beach N/A 32 N/A N/A W22G30 N/A WCI 19 Matinecock PT N/A 36 N/A N/A W24 N/A WCI 24 Farmingdale CLEAR 32 18 56 W10 30.03S WCI 24 MacArthur/ISP CLEAR 30 18 60 W13 30.01R WCI 20 Shirley CLEAR 32 18 56 W10 30.01S WCI 24 Westhampton CLEAR 32 17 54 W13G21 30.01R WCI 22 Southampton NOT AVBL Bridgehampton NOT AVBL East Hampton N/A 33 19 57 W9 29.97R WCI 25 Montauk N/A 36 22 56 W16G26 29.97R WCI 26 $$ NYZ052-065-067-091200- HUDSON VALLEY CITY SKY/WX TMP DP RH WIND PRES REMARKS White Plains CLEAR 32 16 51 W12G20 30.00R WCI 23 Newburgh PTCLDY 30 21 69 W17G29 30.01R WCI 18 Montgomery MOCLDY 32 19 58 W8 30.01R WCI 25 Poughkeepsie CLOUDY 31 19 61 W12 30.00R WCI 22 Albany PTCLDY 28 15 58 NW15G22 29.99R WCI 16 $$ NJZ001-105-106-008-010-013-015-019>022-104-091200- NEW JERSEY CITY SKY/WX TMP DP RH WIND PRES REMARKS Newark/Liberty PTCLDY 31 17 56 W18 30.07R WCI 19 Teterboro MOCLDY 32 16 51 W8 30.05S WCI 25 Caldwell PTCLDY 31 17 56 VRB6 30.07R WCI 25 Somerville MOCLDY 31 16 54 W8G20 30.08R WCI 23 Linden N/A 31 17 54 W13 30.09R WCI 22 Sussex CLOUDY 31 18 58 VRB7 30.04R WCI 24 Andover N/A 29 17 61 VRB7 30.06R WCI 22 Trenton CLEAR 30 16 56 W8G17 30.11R WCI 22 Millville CLEAR 29 18 63 W12 30.17R WCI 19 Atlantic City CLEAR 29 15 56 W12 30.15R WCI 19 Wrightstown CLEAR 29 16 57 NW12 30.11R WCI 20 Toms River CLEAR 29 18 63 W13 30.13R WCI 19 Belmar CLEAR 28 18 66 W14 30.10R WCI 17 $$ PAZ047>061-062-071-091200- EASTERN PENNSYLVANIA CITY SKY/WX TMP DP RH WIND PRES REMARKS Philadelphia CLEAR 30 16 56 W10 30.18R WCI 21 Allentown MOCLDY 30 16 56 W15G24 30.10S WCI 19 Scranton FLURRIES 28 19 69 SW10 30.06R WCI 19 $$ CTZ002-004>006-009-010-012-RIZ004-006-007-MAZ004-011-015-091200- SOUTHERN NEW ENGLAND IN CT CITY SKY/WX TMP DP RH WIND PRES REMARKS Bradley INTL PTCLDY 28 17 63 CALM 29.94R Hartford MOCLDY 31 19 61 W7 29.96R WCI 24 Danbury CLEAR 30 17 58 SW7G21 29.98R WCI 23 Wtrbury/Oxford CLEAR 28 16 59 W7 29.96R WCI 21 Bridgeport CLEAR 34 17 50 W15G22 29.99 WCI 24 Meriden CLEAR 32 17 54 W7 29.97R WCI 26 New Haven CLEAR 33 18 53 W9 29.99R WCI 25 Chester N/A 30 18 59 VRB6G15 29.95R WCI 24 Groton CLEAR 33 20 58 NW6 29.96R WCI 28 Wilimantic CLEAR 31 19 61 VRB7 29.93S WCI 24 IN RI CITY SKY/WX TMP DP RH WIND PRES REMARKS Providence CLEAR 30 18 60 W9 29.92S WCI 22 Block Island PTCLDY 35 21 56 W17G29 29.95R WCI 25 Westerly CLEAR 32 18 56 VRB7 29.95R WCI 26 IN MA CITY SKY/WX TMP DP RH WIND PRES REMARKS Boston PTCLDY 32 18 56 W15 29.88R WCI 22 Worcester PTCLDY 26 17 68 W17G23 29.84R WCI 13 Westfield MOCLDY 31 20 63 NW9G21 29.92R WCI 23 Provincetown CLEAR 34 21 59 W23G32 29.87R WCI 22 Nantucket CLEAR 34 19 54 W18G31 29.90R WCI 23 $$ ANZ330-335-338-340-345-350-353-355-091200- COASTAL MARINE OBSERVATIONS STATION/POSITION TIME SKY/WX TEMP WIND PRES VSBY WAVE AIR SEA DIR/SP/G HT/PER (UTC) (F) (DEG/KT/KT) (MB) (MI) (FT/S) NY HARB ENTRANCE 0950 36 52 290/ 25/ 33 1016.8 4/ 5 20 S FIRE ISLAND 1050 37 53 300/ 27/ 31 1016.6 7/ 6 GREAT SOUTH BAY 1030 34 42 N/A 23 SSW MONTAUK P 0950 38 53 280/ 25/ 31 1014.7 6/ 6 15 E BARNEGAT LI 1030 52 N/A 5/ 5 HUDSON CANYON 0950 40 57 1016.4 9/ 8 KINGS POINT 1048 34 46 1017.2 EXECUTION ROCKS 1045 35 250/ 14/ 17 N/A CENTRAL LI SOUND 1045 37 49 290/ 21/ 27 N/A 4/ 5 EASTERN LI SOUND NOT AVBL ROBBINS REEF 1048 33 280/ 19/ 24 1018.0 $$ >>>>>>>>>>>>>>>>>>>>>>>>>>>> KEY <<<<<<<<<<<<<<<<<<<<<<<<<<< > < > SKY/WX - Sky Condition/Present Weather < > TMP - Temperature in Fahrenheit < > DP - Dew Point in Fahrenheit < > RH - Relative Humidity in Percent < > WIND - Direction (from) and Speed in MPH < > PRES - Mean Sea Level Pressure (inches of Hg) < > WCI - Wind Chill Index < > VSB - VISIBILITY IN MILES < > HX - HEAT INDEX < > TC - TEMPERATURE IN CELSIUS < > VRB - VARIABLE WIND DIRECTION < > < >>>>>>>>>>>>>>>>>>>>>>>>>>>> KEY <<<<<<<<<<<<<<<<<<<<<<<<<<<

USA.gov is the U.S. government's official web portal to all federal, state and local government web resources and services.